| time (UTC) | temp F | wind direction | speed knots | gust knots | rain 1hr in | rain 24hr in | rain mn in | humidity % | barometer mb |
| 20260506171006 | 74 | 215 | 8.7 | 16.5 | 0.00 | 0.00 | 0.00 | 76 | 1015.0 |
| 20260506170505 | 74 | 231 | 7.8 | 16.5 | 0.00 | 0.00 | 0.00 | 75 | 1015.0 |
| 20260506170002 | 75 | 239 | 7.8 | 12.2 | 0.00 | 0.00 | 0.00 | 75 | 1015.2 |
| 20260506165502 | 75 | 231 | 7.0 | 12.2 | 0.00 | 0.00 | 0.00 | 75 | 1015.1 |
| 20260506165003 | 75 | 215 | 5.2 | 14.8 | 0.00 | 0.00 | 0.00 | 75 | 1015.1 |
| 20260506164513 | 75 | 228 | 7.0 | 14.8 | 0.00 | 0.00 | 0.00 | 75 | 1015.1 |
| 20260506164003 | 74 | 240 | 4.3 | 12.2 | 0.00 | 0.00 | 0.00 | 75 | 1014.9 |
| 20260506163502 | 74 | 233 | 6.1 | 13.0 | 0.00 | 0.00 | 0.00 | 75 | 1014.9 |
| 20260506163009 | 74 | 227 | 7.0 | 14.8 | 0.00 | 0.00 | 0.00 | 75 | 1014.9 |
| 20260506162508 | 74 | 258 | 7.8 | 14.8 | 0.00 | 0.00 | 0.00 | 74 | 1014.9 |
| 20260506162004 | 75 | 245 | 7.8 | 13.9 | 0.00 | 0.00 | 0.00 | 73 | 1014.8 |
| 20260506161503 | 74 | 198 | 6.1 | 10.4 | 0.00 | 0.00 | 0.00 | 75 | 1014.8 |
| 20260506161004 | 74 | 249 | 4.3 | 13.0 | 0.00 | 0.00 | 0.00 | 75 | 1014.9 |
| 20260506160503 | 74 | 232 | 7.0 | 13.0 | 0.00 | 0.00 | 0.00 | 75 | 1014.9 |
| 20260506160003 | 74 | 278 | 3.5 | 13.0 | 0.00 | 0.00 | 0.00 | 75 | 1014.8 |
| 20260506155504 | 74 | 183 | 4.3 | 9.6 | 0.00 | 0.00 | 0.00 | 75 | 1014.9 |
| 20260506155003 | 74 | 177 | 3.5 | 11.3 | 0.00 | 0.00 | 0.00 | 75 | 1014.7 |
| 20260506154503 | 74 | 229 | 5.2 | 11.3 | 0.00 | 0.00 | 0.00 | 76 | 1014.8 |
| 20260506154003 | 74 | 225 | 7.0 | 11.3 | 0.00 | 0.00 | 0.00 | 75 | 1014.9 |
| 20260506153503 | 74 | 200 | 6.1 | 15.6 | 0.00 | 0.00 | 0.00 | 76 | 1015.0 |
| 20260506153004 | 73 | 265 | 7.0 | 15.6 | 0.00 | 0.00 | 0.00 | 76 | 1015.1 |
| 20260506152504 | 73 | 225 | 6.1 | 13.9 | 0.00 | 0.00 | 0.00 | 76 | 1015.0 |
| 20260506152002 | 73 | 227 | 4.3 | 13.9 | 0.00 | 0.00 | 0.00 | 77 | 1015.1 |
| 20260506151504 | 73 | 211 | 7.0 | 14.8 | 0.00 | 0.00 | 0.00 | 77 | 1015.1 |
| 20260506151003 | 73 | 235 | 7.8 | 14.8 | 0.00 | 0.00 | 0.00 | 77 | 1015.1 |
| 20260506150504 | 73 | 236 | 7.8 | 12.2 | 0.00 | 0.00 | 0.00 | 77 | 1015.1 |
| 20260506150003 | 73 | 219 | 3.5 | 13.0 | 0.00 | 0.00 | 0.00 | 78 | 1015.1 |
| 20260506145503 | 72 | 224 | 6.1 | 13.9 | 0.00 | 0.00 | 0.00 | 78 | 1015.1 |
| 20260506145003 | 71 | 250 | 7.8 | 13.9 | 0.00 | 0.00 | 0.00 | 78 | 1015.2 |
| 20260506144506 | 71 | 226 | 7.0 | 13.0 | 0.00 | 0.00 | 0.00 | 79 | 1015.3 |
| 20260506144006 | 71 | 213 | 5.2 | 15.6 | 0.00 | 0.00 | 0.00 | 79 | 1015.4 |
| 20260506143505 | 71 | 227 | 9.6 | 15.6 | 0.00 | 0.00 | 0.00 | 79 | 1015.2 |
| 20260506143003 | 71 | 211 | 7.8 | 14.8 | 0.00 | 0.00 | 0.00 | 79 | 1015.4 |
| 20260506142503 | 71 | 225 | 7.8 | 14.8 | 0.00 | 0.00 | 0.00 | 79 | 1015.5 |
| 20260506142002 | 71 | 172 | 7.8 | 13.0 | 0.00 | 0.00 | 0.00 | 79 | 1015.4 |
| 20260506141514 | 71 | 217 | 3.5 | 13.0 | 0.00 | 0.00 | 0.00 | 80 | 1015.4 |
| 20260506141004 | 70 | 225 | 7.0 | 13.0 | 0.00 | 0.00 | 0.00 | 80 | 1015.5 |
| 20260506140504 | 69 | 215 | 6.1 | 11.3 | 0.00 | 0.00 | 0.00 | 82 | 1015.4 |
| 20260506140004 | 69 | 225 | 6.1 | 9.6 | 0.00 | 0.00 | 0.00 | 81 | 1015.4 |
| 20260506135503 | 68 | 219 | 5.2 | 9.6 | 0.00 | 0.00 | 0.00 | 82 | 1015.4 |
| 20260506135003 | 68 | 231 | 6.1 | 9.6 | 0.00 | 0.00 | 0.00 | 82 | 1015.5 |
| 20260506134510 | 68 | 186 | 3.5 | 12.2 | 0.00 | 0.00 | 0.00 | 83 | 1015.4 |
| 20260506134004 | 68 | 221 | 7.0 | 12.2 | 0.00 | 0.00 | 0.00 | 83 | 1015.5 |
| 20260506133500 | 67 | 221 | 5.2 | 10.4 | 0.00 | 0.00 | 0.00 | 83 | 1015.5 |
| 20260506133014 | 67 | 202 | 4.3 | 10.4 | 0.00 | 0.00 | 0.00 | 84 | 1015.5 |
| 20260506132503 | 67 | 242 | 3.5 | 10.4 | 0.00 | 0.00 | 0.00 | 84 | 1015.4 |
| 20260506132007 | 67 | 209 | 5.2 | 10.4 | 0.00 | 0.00 | 0.00 | 84 | 1015.4 |
| 20260506131513 | 67 | 218 | 4.3 | 10.4 | 0.00 | 0.00 | 0.00 | 84 | 1015.5 |
| 20260506131003 | 66 | 233 | 7.0 | 10.4 | 0.00 | 0.00 | 0.00 | 84 | 1015.5 |
| 20260506130506 | 66 | 254 | 5.2 | 9.6 | 0.00 | 0.00 | 0.00 | 84 | 1015.5 |
| 20260506130006 | 66 | 244 | 5.2 | 11.3 | 0.00 | 0.00 | 0.00 | 84 | 1015.5 |
| 20260506125507 | 66 | 246 | 3.5 | 11.3 | 0.00 | 0.00 | 0.00 | 84 | 1015.5 |
| 20260506125004 | 66 | 250 | 4.3 | 12.2 | 0.00 | 0.00 | 0.00 | 84 | 1015.4 |
| 20260506124508 | 66 | 244 | 7.0 | 12.2 | 0.00 | 0.00 | 0.00 | 84 | 1015.4 |
| 20260506124003 | 66 | 243 | 4.3 | 11.3 | 0.00 | 0.00 | 0.00 | 84 | 1015.4 |
| 20260506123506 | 66 | 196 | 5.2 | 9.6 | 0.00 | 0.00 | 0.00 | 84 | 1015.3 |
| 20260506123006 | 66 | 214 | 5.2 | 11.3 | 0.00 | 0.00 | 0.00 | 84 | 1014.9 |
| 20260506122505 | 66 | 227 | 6.1 | 11.3 | 0.00 | 0.00 | 0.00 | 84 | 1014.9 |
| 20260506122005 | 66 | 242 | 5.2 | 10.4 | 0.00 | 0.00 | 0.00 | 84 | 1014.8 |
| 20260506121508 | 66 | 205 | 5.2 | 11.3 | 0.00 | 0.00 | 0.00 | 84 | 1014.8 |
| 20260506121008 | 66 | 227 | 6.1 | 13.9 | 0.00 | 0.00 | 0.00 | 84 | 1014.7 |
| 20260506120503 | 66 | 237 | 7.0 | 13.9 | 0.00 | 0.00 | 0.00 | 84 | 1014.3 |
| 20260506120041 | 66 | 235 | 4.3 | 11.3 | 0.00 | 0.00 | 0.00 | 84 | 1014.3 |
| 20260506115503 | 66 | 238 | 7.0 | 14.8 | 0.00 | 0.00 | 0.00 | 84 | 1014.3 |
| 20260506115005 | 66 | 208 | 5.2 | 14.8 | 0.00 | 0.00 | 0.00 | 84 | 1014.3 |
| 20260506114506 | 65 | 216 | 6.1 | 10.4 | 0.00 | 0.00 | 0.00 | 84 | 1014.4 |
| 20260506114007 | 65 | 233 | 4.3 | 12.2 | 0.00 | 0.00 | 0.00 | 84 | 1014.2 |
| 20260506113508 | 65 | 207 | 8.7 | 12.2 | 0.00 | 0.00 | 0.00 | 84 | 1014.1 |
| 20260506113008 | 65 | 257 | 6.1 | 12.2 | 0.00 | 0.00 | 0.00 | 84 | 1014.1 |
| 20260506112503 | 65 | 258 | 2.6 | 8.7 | 0.00 | 0.00 | 0.00 | 84 | 1014.0 |
| 20260506112003 | 65 | 238 | 3.5 | 12.2 | 0.00 | 0.00 | 0.00 | 84 | 1014.0 |
| 20260506111515 | 65 | 209 | 4.3 | 12.2 | 0.00 | 0.00 | 0.00 | 84 | 1014.0 |
| 20260506111003 | 65 | 234 | 5.2 | 12.2 | 0.00 | 0.00 | 0.00 | 84 | 1013.8 |
| 20260506110508 | 65 | 222 | 7.0 | 10.4 | 0.00 | 0.00 | 0.00 | 84 | 1013.9 |
| 20260506110010 | 65 | 229 | 5.2 | 13.0 | 0.00 | 0.00 | 0.00 | 84 | 1013.8 |
| 20260506105508 | 66 | 208 | 5.2 | 13.0 | 0.00 | 0.00 | 0.00 | 84 | 1013.6 |
| 20260506105007 | 66 | 233 | 6.1 | 9.6 | 0.00 | 0.00 | 0.00 | 84 | 1013.5 |
| 20260506104521 | 66 | 242 | 4.3 | 8.7 | 0.00 | 0.00 | 0.00 | 84 | 1013.4 |
| 20260506104009 | 66 | 209 | 4.3 | 10.4 | 0.00 | 0.00 | 0.00 | 83 | 1013.3 |
| 20260506103504 | 66 | 240 | 4.3 | 10.4 | 0.00 | 0.00 | 0.00 | 83 | 1013.2 |
| 20260506103023 | 66 | 198 | 5.2 | 11.3 | 0.00 | 0.00 | 0.00 | 83 | 1013.3 |
| 20260506102509 | 66 | 219 | 7.0 | 11.3 | 0.00 | 0.00 | 0.00 | 83 | 1013.3 |
| 20260506102003 | 65 | 219 | 3.5 | 8.7 | 0.00 | 0.00 | 0.00 | 83 | 1013.2 |
| 20260506101512 | 65 | 209 | 3.5 | 9.6 | 0.00 | 0.00 | 0.00 | 83 | 1013.1 |
| 20260506101003 | 65 | 225 | 3.5 | 9.6 | 0.00 | 0.00 | 0.00 | 83 | 1013.0 |
| 20260506100502 | 65 | 227 | 4.3 | 8.7 | 0.00 | 0.00 | 0.00 | 83 | 1013.0 |
| 20260506100005 | 65 | 212 | 3.5 | 8.7 | 0.00 | 0.00 | 0.00 | 82 | 1012.8 |
| 20260506095502 | 65 | 225 | 5.2 | 8.7 | 0.00 | 0.00 | 0.00 | 82 | 1012.5 |
| 20260506095004 | 65 | 201 | 2.6 | 9.6 | 0.00 | 0.00 | 0.00 | 82 | 1012.4 |
| 20260506094504 | 65 | 209 | 5.2 | 9.6 | 0.00 | 0.00 | 0.00 | 82 | 1012.4 |
| 20260506094002 | 65 | 233 | 2.6 | 8.7 | 0.00 | 0.00 | 0.00 | 82 | 1012.3 |
| 20260506093504 | 65 | 194 | 3.5 | 7.8 | 0.00 | 0.00 | 0.00 | 82 | 1012.1 |
| 20260506093002 | 65 | 228 | 2.6 | 7.8 | 0.00 | 0.00 | 0.00 | 82 | 1012.0 |
| 20260506092504 | 65 | 179 | 3.5 | 11.3 | 0.00 | 0.00 | 0.00 | 82 | 1012.1 |
| 20260506092003 | 65 | 215 | 4.3 | 11.3 | 0.00 | 0.00 | 0.00 | 82 | 1012.1 |
| 20260506091503 | 65 | 234 | 4.3 | 9.6 | 0.00 | 0.00 | 0.00 | 82 | 1012.0 |
| 20260506091002 | 65 | 178 | 3.5 | 11.3 | 0.00 | 0.00 | 0.00 | 82 | 1012.1 |
| 20260506090501 | 65 | 203 | 4.3 | 11.3 | 0.00 | 0.00 | 0.00 | 82 | 1012.1 |
| 20260506090002 | 65 | 173 | 2.6 | 8.7 | 0.00 | 0.00 | 0.00 | 82 | 1012.1 |
| 20260506085503 | 65 | 211 | 4.3 | 8.7 | 0.00 | 0.00 | 0.00 | 82 | 1012.0 |
| 20260506085002 | 65 | 157 | 1.7 | 8.7 | 0.00 | 0.00 | 0.00 | 81 | 1012.1 |
| 20260506084504 | 65 | 201 | 3.5 | 10.4 | 0.00 | 0.00 | 0.00 | 81 | 1012.1 |
| 20260506084006 | 65 | 224 | 3.5 | 14.8 | 0.00 | 0.00 | 0.00 | 81 | 1012.1 |
| 20260506083502 | 65 | 209 | 5.2 | 14.8 | 0.00 | 0.00 | 0.00 | 81 | 1012.1 |
| 20260506083006 | 65 | 219 | 4.3 | 10.4 | 0.00 | 0.00 | 0.00 | 81 | 1012.1 |
| 20260506082504 | 65 | 226 | 5.2 | 9.6 | 0.00 | 0.00 | 0.00 | 81 | 1012.1 |
| 20260506082001 | 65 | 173 | 3.5 | 9.6 | 0.00 | 0.00 | 0.00 | 80 | 1012.1 |
| 20260506081506 | 65 | 196 | 3.5 | 10.4 | 0.00 | 0.00 | 0.00 | 80 | 1012.2 |
| 20260506081002 | 65 | 223 | 5.2 | 11.3 | 0.00 | 0.00 | 0.00 | 80 | 1012.2 |
| 20260506080506 | 65 | 168 | 5.2 | 11.3 | 0.00 | 0.00 | 0.00 | 80 | 1012.3 |
| 20260506073501 | 64 | 207 | 3.5 | 7.8 | 0.00 | 0.00 | 0.00 | 80 | 1012.1 |
| 20260506073003 | 64 | 208 | 3.5 | 7.8 | 0.00 | 0.00 | 0.00 | 80 | 1012.2 |
| 20260506072502 | 64 | 196 | 3.5 | 7.8 | 0.00 | 0.00 | 0.00 | 80 | 1012.4 |
| 20260506072001 | 64 | 209 | 3.5 | 7.8 | 0.00 | 0.00 | 0.00 | 80 | 1012.4 |
| 20260506071503 | 64 | 244 | 4.3 | 7.8 | 0.00 | 0.00 | 0.00 | 80 | 1012.5 |
| 20260506071005 | 65 | 186 | 2.6 | 7.0 | 0.00 | 0.00 | 0.00 | 79 | 1012.5 |
| 20260506070502 | 65 | 185 | 2.6 | 7.0 | 0.00 | 0.00 | 0.00 | 79 | 1012.5 |
| 20260506062501 | 66 | 179 | 3.5 | 7.0 | 0.00 | 0.00 | 0.00 | 77 | 1013.0 |
| 20260506062003 | 66 | 197 | 3.5 | 7.0 | 0.00 | 0.00 | 0.00 | 77 | 1013.0 |
| 20260506061506 | 66 | 207 | 1.7 | 7.8 | 0.00 | 0.00 | 0.00 | 76 | 1013.1 |
| 20260506061003 | 66 | 219 | 2.6 | 7.8 | 0.00 | 0.00 | 0.00 | 76 | 1013.1 |
| 20260506060502 | 66 | 217 | 3.5 | 10.4 | 0.00 | 0.00 | 0.00 | 76 | 1013.2 |
| 20260506051002 | 67 | 200 | 4.3 | 9.6 | 0.00 | 0.00 | 0.00 | 73 | 1013.2 |
| 20260506050502 | 67 | 192 | 5.2 | 9.6 | 0.00 | 0.00 | 0.00 | 72 | 1013.1 |
| 20260506045002 | 68 | 185 | 4.3 | 10.4 | 0.00 | 0.00 | 0.00 | 71 | 1012.9 |
| 20260506044515 | 68 | 236 | 3.5 | 10.4 | 0.00 | 0.00 | 0.00 | 71 | 1013.0 |
| 20260506044004 | 68 | 213 | 6.1 | 10.4 | 0.00 | 0.00 | 0.00 | 71 | 1013.0 |
| 20260506043505 | 68 | 204 | 5.2 | 13.0 | 0.00 | 0.00 | 0.00 | 70 | 1013.2 |
| 20260506043016 | 68 | 190 | 6.1 | 13.0 | 0.00 | 0.00 | 0.00 | 70 | 1013.2 |
| 20260506042504 | 68 | 244 | 7.8 | 13.0 | 0.00 | 0.00 | 0.00 | 71 | 1013.2 |
| 20260506042008 | 68 | 231 | 4.3 | 12.2 | 0.00 | 0.00 | 0.00 | 71 | 1013.2 |
| 20260506041515 | 68 | 231 | 3.5 | 9.6 | 0.00 | 0.00 | 0.00 | 71 | 1013.1 |
| 20260506041003 | 68 | 168 | 3.5 | 8.7 | 0.00 | 0.00 | 0.00 | 71 | 1013.2 |
| 20260506040502 | 68 | 225 | 3.5 | 8.7 | 0.00 | 0.00 | 0.00 | 71 | 1013.3 |
| 20260506040006 | 69 | 208 | 3.5 | 8.7 | 0.00 | 0.00 | 0.00 | 71 | 1013.4 |
| 20260506035503 | 69 | 223 | 3.5 | 8.7 | 0.00 | 0.00 | 0.00 | 71 | 1013.3 |
| 20260506035003 | 69 | 189 | 3.5 | 8.7 | 0.00 | 0.00 | 0.00 | 70 | 1013.3 |
| 20260506034511 | 69 | 199 | 4.3 | 13.0 | 0.00 | 0.00 | 0.00 | 70 | 1013.3 |
| 20260506034004 | 69 | 150 | 5.2 | 13.0 | 0.00 | 0.00 | 0.00 | 70 | 1013.4 |
| 20260506033506 | 69 | 199 | 5.2 | 12.2 | 0.00 | 0.00 | 0.00 | 69 | 1013.3 |
| 20260506033008 | 70 | 194 | 7.0 | 12.2 | 0.00 | 0.00 | 0.00 | 69 | 1013.2 |
| 20260506032507 | 70 | 223 | 4.3 | 11.3 | 0.00 | 0.00 | 0.00 | 69 | 1013.4 |
| 20260506032010 | 70 | 213 | 6.1 | 11.3 | 0.00 | 0.00 | 0.00 | 69 | 1013.4 |
| 20260506031520 | 70 | 213 | 5.2 | 12.2 | 0.00 | 0.00 | 0.00 | 69 | 1013.2 |
| 20260506031007 | 70 | 201 | 4.3 | 12.2 | 0.00 | 0.00 | 0.00 | 68 | 1013.0 |
| 20260506030506 | 70 | 197 | 4.3 | 9.6 | 0.00 | 0.00 | 0.00 | 68 | 1012.9 |
| 20260506030022 | 70 | 228 | 4.3 | 12.2 | 0.00 | 0.00 | 0.00 | 68 | 1012.9 |
| 20260506025506 | 70 | 207 | 4.3 | 12.2 | 0.00 | 0.00 | 0.00 | 68 | 1012.8 |
| 20260506025005 | 70 | 211 | 4.3 | 11.3 | 0.00 | 0.00 | 0.00 | 68 | 1012.8 |
| 20260506024506 | 70 | 194 | 3.5 | 11.3 | 0.00 | 0.00 | 0.00 | 67 | 1012.9 |
| 20260506024004 | 71 | 199 | 4.3 | 13.9 | 0.00 | 0.00 | 0.00 | 66 | 1012.8 |
| 20260506023504 | 71 | 209 | 6.1 | 13.9 | 0.00 | 0.00 | 0.00 | 66 | 1012.8 |
| 20260506023012 | 71 | 199 | 3.5 | 11.3 | 0.00 | 0.00 | 0.00 | 66 | 1012.8 |
| 20260506022503 | 71 | 171 | 5.2 | 11.3 | 0.00 | 0.00 | 0.00 | 66 | 1012.8 |
| 20260506022003 | 71 | 193 | 4.3 | 11.3 | 0.00 | 0.00 | 0.00 | 65 | 1012.8 |
| 20260506021530 | 71 | 186 | 4.3 | 10.4 | 0.00 | 0.00 | 0.00 | 65 | 1012.8 |
| 20260506021004 | 71 | 200 | 5.2 | 10.4 | 0.00 | 0.00 | 0.00 | 65 | 1013.0 |
| 20260506020503 | 71 | 188 | 4.3 | 8.7 | 0.00 | 0.00 | 0.00 | 65 | 1012.7 |
| 20260506020004 | 71 | 204 | 2.6 | 8.7 | 0.00 | 0.00 | 0.00 | 64 | 1012.5 |
| 20260506015503 | 71 | 227 | 2.6 | 8.7 | 0.00 | 0.00 | 0.00 | 64 | 1012.3 |
| 20260506015004 | 71 | 215 | 3.5 | 7.0 | 0.00 | 0.00 | 0.00 | 63 | 1012.2 |
| 20260506014505 | 71 | 207 | 1.7 | 8.7 | 0.00 | 0.00 | 0.00 | 62 | 1012.3 |
| 20260506014004 | 72 | 205 | 2.6 | 8.7 | 0.00 | 0.00 | 0.00 | 62 | 1012.4 |
| 20260506013503 | 72 | 222 | 3.5 | 7.8 | 0.00 | 0.00 | 0.00 | 62 | 1012.5 |
| 20260506013008 | 72 | 204 | 2.6 | 5.2 | 0.00 | 0.00 | 0.00 | 62 | 1012.5 |
| 20260506012504 | 72 | 186 | 1.7 | 6.1 | 0.00 | 0.00 | 0.00 | 61 | 1012.4 |
| 20260506012005 | 72 | 173 | 0.9 | 6.1 | 0.00 | 0.00 | 0.00 | 61 | 1012.4 |
| 20260506011506 | 72 | 141 | 1.7 | 6.1 | 0.00 | 0.00 | 0.00 | 60 | 1012.4 |
| 20260506011007 | 72 | 200 | 1.7 | 7.0 | 0.00 | 0.00 | 0.00 | 60 | 1012.4 |
| 20260506010504 | 73 | 205 | 3.5 | 7.0 | 0.00 | 0.00 | 0.00 | 59 | 1012.4 |
| 20260506010004 | 73 | 180 | 1.7 | 6.1 | 0.00 | 0.00 | 0.00 | 59 | 1012.3 |
| 20260506005507 | 73 | 167 | 1.7 | 6.1 | 0.00 | 0.00 | 0.00 | 59 | 1012.4 |
| 20260506005004 | 73 | 178 | 2.6 | 6.1 | 0.00 | 0.00 | 0.00 | 59 | 1012.3 |
| 20260506004505 | 72 | 167 | 1.7 | 5.2 | 0.00 | 0.00 | 0.00 | 58 | 1012.1 |
| 20260506004006 | 73 | 210 | 1.7 | 7.0 | 0.00 | 0.00 | 0.00 | 59 | 1012.1 |
| 20260506003507 | 73 | 199 | 1.7 | 7.0 | 0.00 | 0.00 | 0.00 | 58 | 1012.1 |
| 20260506003004 | 73 | 207 | 2.6 | 6.1 | 0.00 | 0.00 | 0.00 | 58 | 1012.0 |
| 20260506002506 | 73 | 224 | 2.6 | 6.1 | 0.00 | 0.00 | 0.00 | 57 | 1012.0 |
| 20260506002003 | 73 | 218 | 1.7 | 7.0 | 0.00 | 0.00 | 0.00 | 57 | 1012.0 |
| 20260506001508 | 73 | 200 | 2.6 | 7.0 | 0.00 | 0.00 | 0.00 | 58 | 1012.2 |
| 20260506001004 | 73 | 176 | 1.7 | 6.1 | 0.00 | 0.00 | 0.00 | 57 | 1012.3 |
| 20260506000504 | 73 | 201 | 0.9 | 5.2 | 0.00 | 0.00 | 0.00 | 57 | 1012.3 |
| 20260506000015 | 74 | 213 | 1.7 | 5.2 | 0.00 | 0.00 | 0.00 | 57 | 1012.3 |
| 20260505235505 | 74 | 221 | 1.7 | 4.3 | 0.00 | 0.00 | 0.00 | 56 | 1012.2 |
| 20260505235008 | 74 | 228 | 0.9 | 5.2 | 0.00 | 0.00 | 0.00 | 55 | 1012.0 |
| 20260505234514 | 75 | 194 | 1.7 | 5.2 | 0.00 | 0.00 | 0.00 | 55 | 1012.1 |
| 20260505234004 | 75 | 185 | 0.9 | 4.3 | 0.00 | 0.00 | 0.00 | 53 | 1012.1 |
| 20260505233510 | 75 | 159 | 1.7 | 4.3 | 0.00 | 0.00 | 0.00 | 54 | 1012.4 |
| 20260505233004 | 75 | 201 | 0.9 | 4.3 | 0.00 | 0.00 | 0.00 | 54 | 1012.6 |
| 20260505232503 | 75 | 205 | 0.9 | 5.2 | 0.00 | 0.00 | 0.00 | 51 | 1012.5 |
| 20260505232006 | 75 | 215 | 2.6 | 7.0 | 0.00 | 0.00 | 0.00 | 51 | 1012.7 |
| 20260505231512 | 75 | 198 | 0.9 | 7.0 | 0.00 | 0.00 | 0.00 | 52 | 1012.7 |
| 20260505231008 | 75 | 231 | 0.9 | 4.3 | 0.00 | 0.00 | 0.00 | 51 | 1012.6 |
| 20260505230504 | 75 | 199 | 1.7 | 6.1 | 0.00 | 0.00 | 0.00 | 50 | 1012.5 |
| 20260505230015 | 75 | 163 | 1.7 | 7.0 | 0.00 | 0.00 | 0.00 | 51 | 1012.5 |
| 20260505225505 | 75 | 196 | 1.7 | 7.0 | 0.00 | 0.00 | 0.00 | 50 | 1012.7 |
| 20260505225005 | 75 | 196 | 3.5 | 7.0 | 0.00 | 0.00 | 0.00 | 48 | 1012.8 |
| 20260505224517 | 75 | 189 | 1.7 | 6.1 | 0.00 | 0.00 | 0.00 | 48 | 1012.8 |
| 20260505224009 | 75 | 169 | 2.6 | 6.1 | 0.00 | 0.00 | 0.00 | 48 | 1012.6 |
| 20260505223505 | 75 | 160 | 1.7 | 7.0 | 0.00 | 0.00 | 0.00 | 49 | 1012.7 |
| 20260505223021 | 76 | 203 | 2.6 | 6.1 | 0.00 | 0.00 | 0.00 | 48 | 1012.8 |
| 20260505222507 | 76 | 193 | 3.5 | 9.6 | 0.00 | 0.00 | 0.00 | 48 | 1012.8 |
| 20260505222004 | 76 | 204 | 2.6 | 8.7 | 0.00 | 0.00 | 0.00 | 46 | 1012.8 |
| 20260505221507 | 76 | 188 | 3.5 | 10.4 | 0.00 | 0.00 | 0.00 | 45 | 1012.7 |
| 20260505221003 | 77 | 240 | 3.5 | 10.4 | 0.00 | 0.00 | 0.00 | 45 | 1012.8 |
| 20260505220504 | 77 | 216 | 5.2 | 10.4 | 0.00 | 0.00 | 0.00 | 43 | 1012.8 |
| 20260505220009 | 77 | 213 | 5.2 | 8.7 | 0.00 | 0.00 | 0.00 | 45 | 1012.8 |
| 20260505215508 | 77 | 200 | 2.6 | 10.4 | 0.00 | 0.00 | 0.00 | 47 | 1012.8 |
| 20260505215007 | 77 | 200 | 5.2 | 10.4 | 0.00 | 0.00 | 0.00 | 45 | 1013.0 |
| 20260505214516 | 77 | 220 | 5.2 | 8.7 | 0.00 | 0.00 | 0.00 | 45 | 1012.9 |
| 20260505214008 | 77 | 201 | 1.7 | 13.0 | 0.00 | 0.00 | 0.00 | 46 | 1012.8 |
| 20260505213506 | 77 | 182 | 3.5 | 16.5 | 0.00 | 0.00 | 0.00 | 45 | 1012.9 |
| 20260505213017 | 78 | 250 | 9.6 | 16.5 | 0.00 | 0.00 | 0.00 | 43 | 1012.7 |
| 20260505212510 | 79 | 194 | 3.5 | 12.2 | 0.00 | 0.00 | 0.00 | 43 | 1012.7 |
| 20260505212010 | 79 | 182 | 3.5 | 12.2 | 0.00 | 0.00 | 0.00 | 42 | 1012.7 |
| 20260505211512 | 79 | 261 | 3.5 | 13.0 | 0.00 | 0.00 | 0.00 | 45 | 1012.5 |
| 20260505211007 | 79 | 196 | 6.1 | 13.0 | 0.00 | 0.00 | 0.00 | 42 | 1012.6 |
| 20260505210506 | 79 | 227 | 7.8 | 12.2 | 0.00 | 0.00 | 0.00 | 42 | 1012.8 |
| 20260505210012 | 79 | 274 | 3.5 | 11.3 | 0.00 | 0.00 | 0.00 | 47 | 1012.6 |
| 20260505205509 | 79 | 208 | 5.2 | 11.3 | 0.00 | 0.00 | 0.00 | 45 | 1012.8 |
| 20260505205008 | 79 | 175 | 4.3 | 12.2 | 0.00 | 0.00 | 0.00 | 43 | 1012.7 |
| 20260505204515 | 79 | 213 | 6.1 | 13.0 | 0.00 | 0.00 | 0.00 | 43 | 1012.9 |
| 20260505204005 | 79 | 119 | 5.2 | 10.4 | 0.00 | 0.00 | 0.00 | 46 | 1012.8 |
| 20260505203508 | 79 | 146 | 1.7 | 6.1 | 0.00 | 0.00 | 0.00 | 46 | 1012.9 |
| 20260505203028 | 79 | 227 | 2.6 | 10.4 | 0.00 | 0.00 | 0.00 | 46 | 1012.9 |
| 20260505202506 | 78 | 168 | 4.3 | 10.4 | 0.00 | 0.00 | 0.00 | 45 | 1013.2 |
| 20260505202006 | 78 | 209 | 3.5 | 8.7 | 0.00 | 0.00 | 0.00 | 48 | 1013.2 |
| 20260505201512 | 78 | 117 | 3.5 | 15.6 | 0.00 | 0.00 | 0.00 | 48 | 1013.3 |
| 20260505201003 | 78 | 221 | 4.3 | 15.6 | 0.00 | 0.00 | 0.00 | 48 | 1013.3 |
| 20260505200503 | 78 | 217 | 6.1 | 11.3 | 0.00 | 0.00 | 0.00 | 45 | 1013.3 |
| 20260505200007 | 78 | 225 | 5.2 | 15.6 | 0.00 | 0.00 | 0.00 | 46 | 1013.4 |
| 20260505195502 | 78 | 213 | 6.1 | 15.6 | 0.00 | 0.00 | 0.00 | 47 | 1013.4 |
| 20260505195002 | 77 | 170 | 5.2 | 10.4 | 0.00 | 0.00 | 0.00 | 49 | 1013.6 |
| 20260505194512 | 76 | 184 | 3.5 | 13.9 | 0.00 | 0.00 | 0.00 | 50 | 1013.6 |
| 20260505194007 | 77 | 245 | 8.7 | 13.9 | 0.00 | 0.00 | 0.00 | 46 | 1013.7 |
| 20260505193503 | 77 | 214 | 5.2 | 11.3 | 0.00 | 0.00 | 0.00 | 48 | 1013.6 |
| 20260505193020 | 77 | 162 | 3.5 | 11.3 | 0.00 | 0.00 | 0.00 | 48 | 1013.9 |
| 20260505192507 | 77 | 170 | 3.5 | 9.6 | 0.00 | 0.00 | 0.00 | 49 | 1014.0 |
| 20260505192007 | 76 | 127 | 4.3 | 13.0 | 0.00 | 0.00 | 0.00 | 49 | 1013.9 |
| 20260505191516 | 76 | 215 | 6.1 | 13.0 | 0.00 | 0.00 | 0.00 | 48 | 1014.0 |
| 20260505191004 | 77 | 263 | 4.3 | 12.2 | 0.00 | 0.00 | 0.00 | 49 | 1013.9 |
| 20260505190510 | 77 | 235 | 7.0 | 12.2 | 0.00 | 0.00 | 0.00 | 49 | 1014.2 |
| 20260505190010 | 76 | 154 | 4.3 | 10.4 | 0.00 | 0.00 | 0.00 | 54 | 1014.2 |
| 20260505185505 | 76 | 82 | 7.0 | 10.4 | 0.00 | 0.00 | 0.00 | 51 | 1014.3 |
| 20260505185003 | 76 | 260 | 3.5 | 10.4 | 0.00 | 0.00 | 0.00 | 51 | 1014.2 |
| 20260505184508 | 76 | 217 | 5.2 | 10.4 | 0.00 | 0.00 | 0.00 | 52 | 1014.3 |
| 20260505184006 | 76 | 242 | 6.1 | 9.6 | 0.00 | 0.00 | 0.00 | 52 | 1014.4 |
| 20260505183504 | 76 | 165 | 4.3 | 13.9 | 0.00 | 0.00 | 0.00 | 53 | 1014.4 |
| 20260505183011 | 76 | 202 | 5.2 | 13.9 | 0.00 | 0.00 | 0.00 | 53 | 1014.4 |
| 20260505182507 | 76 | 190 | 4.3 | 9.6 | 0.00 | 0.00 | 0.00 | 51 | 1014.4 |
| 20260505182008 | 75 | 206 | 1.7 | 12.2 | 0.00 | 0.00 | 0.00 | 52 | 1014.4 |
| 20260505181521 | 75 | 205 | 7.0 | 12.2 | 0.00 | 0.00 | 0.00 | 49 | 1014.5 |
| 20260505181009 | 75 | 211 | 5.2 | 12.2 | 0.00 | 0.00 | 0.00 | 52 | 1014.5 |
| 20260505180503 | 75 | 142 | 5.2 | 9.6 | 0.00 | 0.00 | 0.00 | 54 | 1014.7 |
| 20260505180023 | 74 | 171 | 2.6 | 9.6 | 0.00 | 0.00 | 0.00 | 55 | 1014.8 |
| 20260505175512 | 74 | 272 | 5.2 | 9.6 | 0.00 | 0.00 | 0.00 | 56 | 1014.9 |
| 20260505175003 | 74 | 150 | 2.6 | 9.6 | 0.00 | 0.00 | 0.00 | 54 | 1015.0 |
| 20260505174509 | 73 | 196 | 3.5 | 15.6 | 0.00 | 0.00 | 0.00 | 55 | 1015.1 |
| 20260505174004 | 73 | 233 | 7.8 | 15.6 | 0.00 | 0.00 | 0.00 | 55 | 1015.1 |
| 20260505173505 | 73 | 233 | 4.3 | 12.2 | 0.00 | 0.00 | 0.00 | 55 | 1015.3 |
| 20260505173012 | 73 | 235 | 6.1 | 14.8 | 0.00 | 0.00 | 0.00 | 55 | 1015.3 |
| 20260505172504 | 72 | 171 | 2.6 | 14.8 | 0.00 | 0.00 | 0.00 | 55 | 1015.2 |
| 20260505172005 | 72 | 215 | 7.0 | 12.2 | 0.00 | 0.00 | 0.00 | 57 | 1015.5 |
| 20260505171505 | 72 | 253 | 5.2 | 9.6 | 0.00 | 0.00 | 0.00 | 57 | 1015.6 |